TimeMST,TemperatureF,Dew PointF,Humidity,Sea Level PressureIn,VisibilityMPH,Wind Direction,Wind SpeedMPH,Gust SpeedMPH,PrecipitationIn,Events,Conditions,WindDirDegrees,DateUTC
12:53 AM,42.1,25.0,51,29.81,10.0,NW,10.4,-,N/A,,Clear,320,2012-12-06 07:53:00
1:53 AM,39.9,28.0,63,29.83,10.0,NNW,17.3,23.0,N/A,,Clear,330,2012-12-06 08:53:00
2:53 AM,39.0,28.0,65,29.86,10.0,North,13.8,-,N/A,,Clear,350,2012-12-06 09:53:00
3:53 AM,37.9,28.0,68,29.86,10.0,NNW,18.4,24.2,N/A,,Clear,340,2012-12-06 10:53:00
4:53 AM,37.0,27.0,67,29.89,10.0,North,12.7,-,N/A,,Clear,350,2012-12-06 11:53:00
5:53 AM,37.0,27.0,67,29.91,10.0,North,15.0,21.9,N/A,,Clear,350,2012-12-06 12:53:00
6:53 AM,35.1,27.0,72,29.95,10.0,NNW,13.8,20.7,N/A,,Clear,340,2012-12-06 13:53:00
7:42 AM,32.0,28.4,87,30.01,10.0,NNE,6.9,-,N/A,,Overcast,30,2012-12-06 14:42:00
7:50 AM,32.0,28.4,87,30.02,10.0,NE,6.9,-,N/A,,Overcast,40,2012-12-06 14:50:00
7:53 AM,32.0,28.9,88,29.99,10.0,NE,6.9,-,N/A,,Overcast,40,2012-12-06 14:53:00
8:28 AM,30.2,28.4,93,30.02,10.0,NE,4.6,-,N/A,,Overcast,40,2012-12-06 15:28:00
8:53 AM,32.0,27.0,82,30.01,10.0,NNE,4.6,-,N/A,,Mostly Cloudy,20,2012-12-06 15:53:00
9:21 AM,33.8,24.8,70,30.02,10.0,East,3.5,-,N/A,,Scattered Clouds,80,2012-12-06 16:21:00
9:53 AM,33.1,25.0,72,30.00,10.0,SSE,6.9,-,N/A,,Scattered Clouds,150,2012-12-06 16:53:00
10:03 AM,33.8,26.6,75,30.03,10.0,SE,9.2,-,N/A,,Mostly Cloudy,130,2012-12-06 17:03:00
10:45 AM,35.6,24.8,65,30.01,10.0,South,9.2,-,N/A,,Mostly Cloudy,180,2012-12-06 17:45:00
10:53 AM,36.0,25.0,64,29.98,10.0,South,8.1,-,N/A,,Mostly Cloudy,180,2012-12-06 17:53:00
11:00 AM,37.4,24.8,60,30.01,10.0,SSE,10.4,-,N/A,,Scattered Clouds,160,2012-12-06 18:00:00
11:28 AM,37.4,26.6,65,29.99,10.0,South,15.0,-,N/A,,Mostly Cloudy,190,2012-12-06 18:28:00
11:53 AM,37.0,27.0,67,29.93,10.0,South,12.7,-,N/A,,Overcast,180,2012-12-06 18:53:00
12:53 PM,37.9,27.0,65,29.91,10.0,South,17.3,-,N/A,,Overcast,190,2012-12-06 19:53:00
1:53 PM,39.0,27.0,62,29.88,10.0,South,16.1,-,N/A,,Overcast,190,2012-12-06 20:53:00
2:19 PM,39.2,26.6,61,29.90,10.0,SSW,13.8,21.9,N/A,,Scattered Clouds,200,2012-12-06 21:19:00
2:53 PM,37.9,28.0,68,29.87,10.0,SSW,21.9,27.6,N/A,,Clear,210,2012-12-06 21:53:00
3:53 PM,37.0,26.1,65,29.88,10.0,South,16.1,21.9,N/A,,Clear,190,2012-12-06 22:53:00
4:53 PM,34.0,25.0,70,29.91,10.0,South,9.2,-,N/A,,Clear,180,2012-12-06 23:53:00
5:53 PM,33.1,24.1,70,29.91,10.0,South,5.8,-,N/A,,Clear,180,2012-12-07 00:53:00
6:53 PM,32.0,24.1,73,29.92,10.0,SSW,11.5,-,N/A,,Clear,200,2012-12-07 01:53:00
7:53 PM,28.9,21.0,72,29.95,10.0,SSE,3.5,-,N/A,,Clear,160,2012-12-07 02:53:00
8:53 PM,30.0,21.0,69,29.95,10.0,SSW,12.7,-,N/A,,Clear,210,2012-12-07 03:53:00
9:53 PM,28.0,19.9,72,29.94,10.0,SSW,11.5,-,N/A,,Clear,210,2012-12-07 04:53:00
10:53 PM,28.0,19.0,69,29.90,10.0,South,10.4,-,N/A,,Clear,190,2012-12-07 05:53:00
11:53 PM,28.0,19.0,69,29.88,10.0,Calm,Calm,-,N/A,,Clear,0,2012-12-07 06:53:00